This is the latest recevied weather packets stored in our database for station/object CE1JFB-10. If no packets are shown the sender has not sent any weather packets the latest 10 day(s).
| Time | Temp. | Humidity | Pressure | Rain* | Wind** | Luminosity | Snow |
|---|---|---|---|---|---|---|---|
| 1788163444 | 70° F | 62% | 762.1 mmHg | - | - | - | - |
| 1788159844 | 71° F | 61% | 762.3 mmHg | - | - | - | - |
| 1788156244 | 71° F | 60% | 762.5 mmHg | - | - | - | - |
| 1788152644 | 71° F | 60% | 762.7 mmHg | - | - | - | - |
| 1788149044 | 72° F | 59% | 763 mmHg | - | - | - | - |
| 1788145444 | 73° F | 58% | 762.7 mmHg | - | - | - | - |
| 1788141843 | 73° F | 58% | 762.8 mmHg | - | - | - | - |
| 1788138243 | 73° F | 57% | 762.7 mmHg | - | - | - | - |
| 1788134643 | 73° F | 57% | 762.4 mmHg | - | - | - | - |
| 1788131043 | 73° F | 57% | 761.9 mmHg | - | - | - | - |
| 1788127443 | 73° F | 57% | 761.4 mmHg | - | - | - | - |
| 1788123843 | 73° F | 55% | 760.9 mmHg | - | - | - | - |
| 1788120243 | 75° F | 53% | 760.3 mmHg | - | - | - | - |
| 1788116643 | 77° F | 51% | 760.3 mmHg | - | - | - | - |
| 1788113043 | 76° F | 51% | 760.9 mmHg | - | - | - | - |
| 1788109443 | 77° F | 50% | 761 mmHg | - | - | - | - |
| 1788105842 | 77° F | 51% | 761.3 mmHg | - | - | - | - |
| 1788102242 | 75° F | 53% | 761.5 mmHg | - | - | - | - |
| 1788098642 | 74° F | 55% | 761.6 mmHg | - | - | - | - |
| 1788095042 | 72° F | 59% | 761.2 mmHg | - | - | - | - |
| 1788091442 | 70° F | 62% | 760.9 mmHg | - | - | - | - |
| 1788087842 | 70° F | 63% | 760.6 mmHg | - | - | - | - |
| 1788084242 | 70° F | 63% | 760.3 mmHg | - | - | - | - |
| 1788080642 | 70° F | 64% | 760.3 mmHg | - | - | - | - |
| 1788077042 | 70° F | 64% | 760.3 mmHg | - | - | - | - |
* Rain since midnight (hover to see other rain measurements)
** Current wind speed in m/s (hover to see current wind gust speed)